Probability
10 26 58 58 58 68 74 74 68 61 65 65 61 65 68 68 71 68 68 71 68 71 68 68 71 65 65 74 77 74 74 74 71 68 68 55 58 52 48 48 55 32 52
10 29 58 61 65 65 71 77 68 61 61 61 58 58 65 68 71 68 65 65 68 68 61 61 61 65 71 65 65 74 71 71 77 68 65 52 52 55 58 48 48 35 48
13 35 52 61 68 68 71 68 65 65 68 61 58 61 65 68 68 58 65 68 65 65 68 71 68 68 68 68 68 61 61 58 52 52 48 42 45 48 45 39 55 55 55
19 32 45 61 61 58 65 65 65 65 61 61 55 55 55 65 68 61 65 61 55 61 65 52 55 58 61 61 58 58 58 52 55 42 35 32 32 42 42 42 52 48 42
19 29 45 61 58 52 58 61 61 58 58 52 55 55 55 61 61 65 65 58 58 58 61 48 52 52 52 52 55 52 45 48 48 29 16 26 32 42 42 42 52 52 48
23 23 42 58 52 55 55 58 58 55 58 58 48 52 52 52 55 55 52 58 58 52 52 48 39 42 48 48 45 45 45 42 32 19 19 16 29 52 42 42 42 42 42
16 16 42 52 48 48 45 45 42 45 55 52 52 48 48 52 42 42 48 55 61 55 48 48 48 45 45 42 42 39 32 35 16 19 23 26 45 61 58 48 48 42 32
13 16 39 42 42 42 42 39 35 45 42 45 55 55 58 55 52 45 48 52 48 45 52 48 45 42 45 35 35 42 32 39 19 13 16 26 48 58 61 58 45 39 42
19 19 23 29 42 42 45 39 35 39 45 42 42 52 45 48 48 45 48 52 39 45 52 48 48 39 42 42 45 35 32 32 26 26 19 29 48 58 55 55 52 48 48
26 26 29 32 35 39 39 42 42 42 32 35 39 42 55 58 52 48 42 32 45 48 48 45 39 42 39 42 45 42 35 32 29 19 13 23 58 55 48 52 58 48 48
19 26 26 29 32 35 35 32 39 45 39 42 48 42 45 55 52 35 23 32 35 35 39 42 39 42 45 39 45 42 32 35 26 23 26 32 58 55 52 52 58 61 58
19 23 26 29 39 39 32 39 45 39 42 45 48 42 48 48 45 29 32 29 29 32 39 39 45 35 35 29 35 39 39 29 29 29 19 48 58 55 45 52 55 65 58
19 19 19 29 42 39 42 42 42 48 48 45 52 45 45 32 26 29 35 45 58 35 42 39 32 32 35 45 48 35 23 26 32 29 29 48 48 48 48 58 61 61 61
23 19 19 29 39 45 42 39 42 45 42 39 45 42 42 42 39 35 48 48 42 48 48 42 48 39 48 42 35 39 35 32 26 39 45 48 52 45 48 58 61 58 55
29 32 32 45 45 52 52 45 42 42 42 39 42 42 48 48 52 48 55 58 52 52 52 58 48 39 39 35 26 35 32 32 29 26 39 48 52 55 48 52 55 58 58
39 45 39 42 48 52 52 52 42 42 45 45 42 35 45 48 52 48 45 55 42 45 52 58 52 58 42 39 35 26 32 29 42 39 39 45 52 52 48 45 42 52 48
42 42 42 35 45 48 39 42 39 39 35 39 35 35 42 42 45 48 45 48 48 52 52 55 52 48 45 35 26 26 32 39 42 45 42 39 42 42 45 42 39 48 48
42 45 39 26 42 42 42 45 39 35 35 32 35 35 35 42 42 45 48 48 48 45 39 48 45 45 39 35 35 29 29 42 48 39 39 35 39 39 39 39 42 48 45
42 48 45 42 39 35 35 42 39 42 32 29 32 32 32 39 39 42 45 42 45 45 45 32 42 39 45 39 39 35 29 23 32 26 26 23 35 42 35 39 39 35 39
42 45 42 45 48 39 29 39 42 39 39 32 39 42 39 35 39 39 35 39 42 42 42 42 45 52 45 48 19 23 32 35 26 23 19 16 26 29 32 32 48 35 39
42 48 42 42 45 45 39 39 32 32 29 32 35 39 35 32 35 39 39 39 39 39 42 42 42 42 45 45 35 29 32 23 23 35 26 19 23 23 32 32 45 42 45
35 48 45 39 35 42 42 48 39 32 29 29 39 42 35 32 29 29 42 42 42 42 42 42 42 42 32 39 35 32 32 29 39 13 29 39 32 29 32 26 26 39 35
42 35 39 42 39 39 42 35 35 45 39 32 35 39 35 35 32 39 39 42 39 35 32 45 45 42 32 35 32 32 29 32 26 19 26 26 32 32 26 16 19 23 26
29 32 45 52 52 48 52 35 39 35 32 45 45 45 42 42 35 39 42 42 42 39 42 29 35 32 35 32 29 35 32 26 29 26 26 16 26 29 29 16 23 19 29
26 26 42 52 52 55 52 45 45 39 39 32 39 42 45 42 32 35 42 42 42 35 32 29 35 39 35 29 26 26 29 32 23 26 23 29 23 19 26 29 29 26 26
32 32 35 48 58 48 48 42 45 48 45 45 39 42 39 42 42 35 35 39 39 32 35 35 32 32 32 32 32 29 23 23 26 16 19 23 26 19 26 35 32 26 29
Height
5884 5883 5883 5882 5882 5882 5882 5882 5881 5880 5880 5881 5881 5881 5881 5881 5882 5883 5883 5884 5885 5885 5885 5886 5886 5887 5888 5889 5889 5890 5891 5892 5892 5893 5893 5894 5894 5895 5895 5895 5896 5896 5896
5884 5884 5883 5883 5883 5883 5882 5882 5882 5881 5881 5881 5881 5881 5881 5882 5882 5883 5884 5884 5884 5885 5885 5886 5886 5887 5888 5888 5889 5890 5891 5891 5892 5893 5893 5894 5894 5894 5895 5895 5896 5896 5896
5885 5884 5884 5884 5884 5884 5883 5883 5883 5882 5882 5881 5881 5882 5882 5882 5882 5883 5883 5884 5884 5884 5885 5885 5886 5887 5888 5888 5889 5889 5890 5891 5892 5892 5893 5893 5893 5894 5894 5895 5895 5895 5896
5886 5886 5885 5885 5885 5885 5884 5884 5883 5883 5882 5882 5882 5882 5882 5882 5882 5883 5883 5883 5884 5884 5885 5885 5886 5886 5887 5887 5888 5889 5890 5890 5891 5891 5892 5892 5893 5893 5894 5894 5895 5895 5895
5887 5886 5886 5886 5886 5885 5885 5884 5884 5883 5883 5883 5882 5882 5882 5882 5882 5882 5882 5883 5883 5883 5884 5884 5885 5885 5886 5887 5887 5888 5889 5889 5890 5891 5891 5891 5892 5893 5893 5894 5894 5894 5895
5888 5887 5887 5886 5886 5886 5885 5885 5884 5883 5883 5883 5883 5882 5882 5882 5882 5882 5882 5882 5882 5882 5883 5883 5884 5884 5885 5885 5886 5887 5888 5888 5889 5890 5890 5891 5891 5892 5892 5893 5893 5894 5894
5889 5888 5888 5887 5887 5887 5886 5886 5885 5884 5884 5883 5883 5883 5882 5882 5881 5881 5881 5882 5882 5881 5882 5882 5883 5883 5884 5884 5885 5886 5887 5887 5888 5889 5890 5890 5891 5891 5892 5892 5893 5893 5894
5890 5889 5889 5888 5888 5887 5887 5886 5885 5885 5884 5884 5883 5883 5882 5882 5881 5881 5881 5881 5881 5881 5881 5881 5882 5882 5883 5883 5883 5885 5886 5886 5887 5888 5889 5889 5890 5890 5891 5891 5892 5892 5893
5891 5890 5890 5889 5888 5888 5887 5887 5886 5885 5884 5883 5883 5882 5882 5881 5881 5881 5880 5880 5880 5881 5880 5881 5881 5881 5882 5882 5883 5884 5884 5885 5886 5887 5888 5888 5889 5889 5890 5890 5891 5891 5892
5892 5892 5890 5890 5889 5888 5888 5887 5886 5885 5884 5883 5882 5882 5881 5881 5880 5880 5879 5879 5879 5879 5879 5880 5880 5880 5881 5882 5882 5883 5884 5884 5885 5885 5886 5887 5888 5888 5889 5889 5890 5890 5890
5893 5892 5891 5890 5889 5888 5888 5887 5886 5885 5883 5882 5881 5881 5880 5880 5880 5879 5879 5878 5878 5878 5879 5879 5879 5879 5880 5881 5881 5882 5882 5883 5884 5884 5885 5886 5887 5887 5888 5888 5888 5888 5889
5894 5893 5892 5891 5890 5888 5887 5886 5885 5884 5883 5882 5881 5880 5880 5879 5879 5879 5878 5878 5878 5878 5878 5878 5878 5878 5879 5880 5880 5881 5881 5882 5883 5883 5884 5885 5885 5886 5886 5886 5887 5887 5887
5895 5894 5893 5891 5890 5889 5887 5886 5884 5883 5882 5881 5881 5880 5879 5879 5878 5878 5877 5877 5877 5877 5877 5877 5877 5877 5878 5878 5879 5880 5880 5881 5881 5882 5883 5883 5884 5884 5884 5885 5885 5886 5886
5896 5895 5893 5892 5890 5889 5887 5886 5884 5883 5882 5881 5880 5880 5879 5878 5877 5877 5876 5876 5876 5876 5876 5876 5876 5876 5877 5877 5878 5878 5879 5880 5880 5881 5881 5882 5882 5882 5882 5883 5883 5884 5884
5896 5895 5894 5892 5891 5889 5887 5886 5884 5882 5881 5880 5879 5879 5878 5877 5876 5876 5876 5875 5875 5875 5875 5874 5875 5875 5875 5876 5876 5877 5877 5878 5878 5879 5879 5880 5880 5881 5881 5881 5881 5882 5882
5897 5895 5894 5892 5891 5889 5887 5886 5884 5882 5880 5880 5879 5878 5877 5876 5875 5875 5874 5874 5874 5873 5873 5873 5873 5873 5874 5874 5874 5875 5875 5876 5876 5877 5877 5878 5878 5878 5879 5879 5879 5879 5879
5896 5895 5894 5892 5890 5888 5887 5885 5883 5882 5880 5879 5878 5877 5876 5875 5874 5873 5873 5872 5872 5871 5871 5871 5871 5871 5872 5872 5872 5872 5873 5873 5874 5875 5875 5875 5875 5876 5876 5876 5876 5877 5877
5896 5895 5893 5892 5890 5888 5886 5884 5883 5881 5879 5878 5877 5876 5875 5874 5873 5872 5871 5871 5870 5870 5869 5869 5869 5869 5869 5869 5869 5870 5870 5871 5871 5872 5872 5872 5872 5873 5873 5874 5874 5874 5874
5896 5894 5893 5891 5889 5887 5885 5884 5882 5880 5878 5877 5876 5875 5874 5873 5872 5871 5870 5869 5868 5867 5867 5867 5867 5867 5867 5867 5867 5867 5867 5868 5869 5869 5869 5869 5869 5870 5870 5870 5871 5871 5871
5895 5894 5892 5891 5889 5887 5885 5883 5881 5879 5877 5876 5875 5874 5872 5871 5870 5869 5868 5867 5866 5865 5865 5865 5864 5864 5864 5864 5864 5864 5864 5865 5865 5866 5866 5866 5866 5867 5867 5867 5867 5867 5868
5895 5893 5891 5890 5888 5886 5884 5882 5880 5878 5876 5875 5874 5872 5871 5870 5869 5868 5867 5865 5864 5863 5862 5862 5861 5861 5861 5861 5861 5861 5861 5861 5862 5862 5863 5863 5863 5863 5863 5863 5863 5863 5864
5894 5892 5891 5889 5887 5885 5883 5881 5879 5877 5875 5873 5872 5871 5870 5868 5867 5866 5865 5863 5862 5861 5860 5859 5858 5858 5858 5857 5858 5858 5858 5859 5858 5858 5858 5859 5859 5859 5859 5859 5859 5859 5859
5893 5891 5889 5888 5886 5884 5882 5879 5877 5875 5873 5872 5870 5869 5868 5866 5865 5864 5862 5861 5860 5859 5857 5856 5855 5855 5854 5854 5854 5854 5854 5855 5854 5854 5854 5854 5854 5855 5855 5855 5855 5855 5855
5892 5890 5888 5886 5884 5882 5880 5878 5876 5874 5872 5870 5869 5867 5866 5864 5863 5862 5860 5859 5857 5856 5855 5853 5852 5851 5851 5850 5850 5850 5850 5850 5850 5850 5850 5850 5850 5850 5850 5850 5850 5850 5850
5890 5889 5887 5885 5883 5881 5878 5876 5874 5872 5870 5868 5866 5865 5863 5862 5860 5859 5857 5856 5854 5853 5851 5850 5849 5848 5847 5846 5845 5845 5845 5845 5845 5846 5846 5845 5845 5845 5845 5845 5845 5845 5845
5889 5887 5885 5883 5881 5879 5877 5874 5872 5870 5868 5866 5864 5863 5861 5859 5858 5856 5855 5853 5851 5850 5848 5846 5845 5843 5842 5841 5841 5840 5840 5840 5840 5840 5840 5840 5840 5839 5839 5839 5840 5840 5839
Wind_Speed
8 8 8 7 7 6 6 6 6 7 7 6 6 7 7 7 6 6 6 6 6 6 6 6 5 5 5 5 5 6 6 6 5 5 4 4 4 4 4 4 4 3 3
8 8 7 7 7 6 6 6 7 7 7 7 6 6 6 6 5 5 5 5 5 5 5 5 5 5 5 5 5 5 6 5 5 4 4 4 4 4 5 4 4 4 4
8 8 7 7 7 6 6 6 6 7 7 6 6 6 6 5 5 5 4 4 4 4 5 5 5 5 5 5 5 5 5 6 5 5 5 5 4 4 5 4 4 4 4
8 7 7 6 6 6 5 5 5 5 5 5 5 5 5 4 4 4 4 3 3 4 4 4 5 5 5 6 6 6 6 6 7 6 6 5 4 4 4 5 5 5 4
8 7 6 6 6 5 5 5 5 5 5 4 4 4 4 3 3 3 3 3 4 4 5 4 5 6 6 6 6 6 6 6 6 6 6 5 5 5 5 6 6 6 5
8 7 6 6 5 5 5 5 5 5 5 4 4 3 3 2 3 3 3 4 4 4 5 4 5 5 6 7 7 7 7 6 6 6 6 6 5 5 5 5 6 6 5
9 8 7 6 5 5 5 5 5 5 4 4 3 2 2 1 2 3 3 3 4 4 5 5 5 5 6 7 7 6 6 6 6 6 6 6 6 6 5 5 6 6 6
9 8 7 6 5 4 4 4 4 4 3 3 2 2 1 1 1 2 3 3 3 4 5 4 4 5 6 7 7 7 6 6 6 6 6 6 6 6 6 6 7 7 7
8 7 7 6 6 5 4 4 4 3 3 2 1 1 1 1 1 2 3 4 4 4 5 5 4 5 6 7 7 8 7 7 7 7 7 6 6 6 6 6 7 7 7
8 7 6 6 6 5 4 4 3 3 2 1 1 0 0 0 1 3 4 5 4 5 5 5 4 5 6 7 7 7 8 8 8 7 7 7 7 7 7 7 7 7 7
7 7 6 6 5 5 4 3 3 2 2 1 0 0 1 1 2 3 4 5 5 5 5 5 5 5 6 7 7 7 8 8 8 8 8 8 8 8 8 8 7 8 8
7 6 6 5 5 5 5 4 3 2 2 1 1 1 2 2 3 3 4 5 5 5 5 6 6 5 6 7 7 7 8 8 8 8 8 8 8 9 8 8 8 8 8
6 5 5 5 5 5 5 5 4 3 2 1 1 2 2 3 3 3 4 5 5 5 6 6 6 6 6 7 7 7 7 8 8 8 8 8 9 9 9 10 10 9 10
6 5 5 6 6 5 5 5 5 4 3 2 2 3 3 2 3 4 4 5 6 7 7 7 6 6 7 7 8 8 8 9 9 8 9 9 9 9 10 10 10 11 11
5 5 6 6 6 6 6 6 6 5 4 3 3 3 3 3 4 4 5 5 6 7 7 7 7 8 8 8 9 9 10 10 10 10 10 10 11 11 11 11 11 12 12
6 6 6 6 6 6 6 6 6 6 5 5 5 4 4 3 4 5 5 5 6 7 6 7 7 8 9 9 10 10 10 11 11 11 11 11 11 12 12 12 12 13 13
7 7 7 7 7 7 6 6 7 6 5 5 5 5 4 4 5 5 5 5 6 7 7 7 8 9 10 11 11 12 12 12 12 12 12 12 12 12 12 13 13 13 13
7 7 7 8 8 8 7 7 7 7 6 6 6 5 5 5 6 6 6 7 7 7 8 8 9 10 10 11 12 13 13 14 14 14 13 14 13 13 13 14 14 14 14
7 7 8 9 9 9 9 9 8 7 7 6 6 6 5 6 6 6 7 8 8 8 9 9 10 10 11 11 12 13 14 14 14 15 15 15 15 15 15 15 16 16 16
8 8 8 9 10 10 9 9 9 9 8 7 6 6 6 6 6 7 7 8 8 9 10 10 11 11 11 12 12 13 14 14 15 15 15 15 16 16 17 16 17 18 18
8 8 9 10 10 10 10 10 9 9 8 7 7 7 7 8 8 8 8 8 8 9 10 11 12 12 12 12 13 13 14 15 15 16 16 16 16 16 16 17 17 18 19
8 9 9 10 11 11 11 11 10 10 8 8 9 9 9 9 9 9 9 8 9 9 10 11 12 13 13 13 14 14 15 15 16 16 17 18 17 17 18 17 17 18 19
9 10 11 11 11 11 12 12 11 11 9 9 9 10 10 10 10 9 9 9 10 10 11 11 12 14 13 14 14 15 16 16 16 17 18 18 18 19 19 19 19 19 19
10 11 11 11 11 12 12 12 12 11 10 10 10 10 10 10 10 10 10 11 11 11 11 12 12 13 13 14 15 16 17 18 18 18 19 19 20 20 20 20 21 20 20
11 11 11 12 12 12 12 13 13 12 11 12 11 11 10 10 10 10 11 12 12 12 12 13 13 14 15 15 16 16 17 19 19 20 20 20 21 22 21 21 21 21 21
11 12 12 13 13 13 13 13 13 13 12 12 12 11 12 11 11 11 12 13 13 13 13 13 13 14 15 16 17 17 18 19 20 20 21 20 21 22 22 22 22 21 21
Wind_Direction
92 91 90 91 93 95 93 94 94 99 104 108 115 115 121 124 130 140 150 158 160 162 168 170 167 166 171 175 177 182 188 189 182 190 189 190 198 198 200 206 207 209 211
92 94 93 97 96 93 93 95 95 99 103 105 109 117 124 130 139 148 155 167 170 171 174 175 178 182 179 185 186 186 195 203 204 199 199 202 208 211 207 211 211 220 220
91 91 95 99 100 98 98 99 98 103 105 107 105 112 119 130 141 157 168 174 179 181 180 183 187 192 191 194 195 196 200 204 204 208 211 216 220 219 216 210 210 218 220
88 87 92 101 101 101 101 101 98 102 109 107 106 113 122 133 147 165 175 186 188 187 186 192 196 196 196 201 203 206 207 210 212 217 220 218 220 223 217 212 214 214 228
85 85 88 94 100 102 104 108 107 105 107 104 107 105 121 142 159 175 184 195 200 194 196 205 210 208 201 204 210 212 215 219 214 215 214 215 225 231 229 228 223 223 232
80 80 81 83 92 96 98 102 111 110 104 99 99 99 117 145 166 188 192 192 195 200 204 202 208 207 206 209 210 212 213 219 218 214 215 219 230 232 231 230 225 229 232
73 72 71 72 78 85 86 93 101 106 102 98 97 104 111 147 182 193 193 194 200 198 199 204 203 200 207 208 206 212 215 221 218 217 215 221 228 233 234 228 232 233 228
71 71 68 67 71 79 85 91 97 97 101 104 100 108 116 108 176 192 196 193 196 203 207 207 207 210 209 206 208 212 220 225 223 221 223 228 228 228 228 231 235 233 234
66 68 67 67 69 68 69 71 82 83 79 92 114 143 135 181 204 215 219 216 209 208 216 211 211 218 209 204 210 220 222 223 224 223 225 225 226 226 230 236 238 238 240
64 64 62 60 62 61 59 57 60 58 53 53 93 183 206 219 239 241 238 226 220 226 229 223 220 225 214 208 216 224 223 223 223 225 226 227 228 230 232 237 239 238 239
58 55 53 53 50 42 37 34 29 22 20 12 254 261 253 257 250 253 252 240 239 245 245 240 237 234 223 218 219 222 219 221 225 228 230 229 230 235 237 238 237 239 240
46 45 43 43 38 27 20 10 359 356 13 12 344 285 263 264 262 261 262 255 248 248 244 241 245 243 233 226 225 224 224 225 226 229 228 229 235 240 241 240 241 242 241
36 34 31 33 27 21 16 6 357 345 338 340 331 327 302 277 275 265 265 265 253 251 251 247 243 241 234 234 231 227 229 231 231 235 237 240 246 244 243 243 244 244 244
30 25 17 13 10 10 7 0 354 339 312 305 313 313 313 305 292 278 269 262 260 259 256 251 246 242 238 242 239 237 235 233 233 239 244 248 252 251 247 246 246 245 248
11 6 4 2 1 360 359 358 353 343 324 308 302 301 301 301 291 280 273 267 266 264 260 256 246 242 244 246 245 244 244 243 241 243 248 250 251 252 249 247 247 246 248
354 355 353 352 351 348 348 353 359 352 341 324 311 309 305 298 290 286 279 275 272 269 267 258 250 247 251 251 250 251 250 246 247 249 250 250 250 252 251 249 250 250 251
351 351 353 350 346 342 342 344 346 343 336 334 330 328 316 306 296 290 283 283 280 271 266 262 256 257 257 255 254 254 252 248 250 254 254 251 252 254 254 252 251 252 255
346 344 344 343 338 336 336 340 339 332 324 323 327 324 324 316 303 291 281 284 281 274 271 268 264 263 264 262 259 256 254 251 250 255 257 256 255 257 257 258 255 254 255
338 337 340 337 334 335 338 340 338 333 324 319 327 327 318 312 309 295 285 283 279 274 273 272 269 266 265 265 263 258 255 252 253 256 258 256 257 258 259 259 257 258 258
343 339 334 330 330 333 337 337 334 331 329 316 314 319 312 307 308 304 299 294 282 275 274 272 270 267 266 265 264 261 257 253 253 257 260 256 258 258 260 262 261 261 259
336 340 340 335 336 338 338 336 335 331 328 325 318 311 313 313 308 304 299 293 287 280 278 274 269 269 269 266 266 265 261 255 255 259 259 257 255 257 260 262 264 263 263
328 333 332 334 336 338 337 337 334 331 327 325 325 318 310 311 309 307 302 298 291 286 286 282 275 271 269 268 267 267 263 258 259 261 261 258 259 259 261 262 264 266 267
328 329 326 328 330 331 332 334 332 329 321 317 317 316 315 310 309 308 304 300 297 291 289 286 280 274 272 271 270 268 262 259 259 261 262 264 263 261 262 262 264 266 269
323 325 325 325 327 327 326 328 328 327 323 320 317 314 314 313 311 310 306 301 298 295 292 289 285 280 275 271 268 265 262 260 259 259 262 266 266 265 264 263 263 266 268
320 321 323 325 325 327 325 323 325 323 320 321 317 314 313 312 311 309 308 307 303 299 295 292 289 284 279 275 272 267 264 262 261 262 265 266 266 266 266 264 265 267 269
321 319 318 320 322 323 324 322 321 321 320 318 316 312 311 308 306 306 307 309 308 305 301 297 294 289 284 280 276 272 269 266 265 264 264 267 266 266 266 265 267 268 268